GFSGL_850_temp_000.txt.gz
Temp
22 23 22 20 20 19 18 18 18 17 17 16 15 15 15 15 15 14 14 14 14 14 14 14 13 14 13 13 13 12 12 12 11 12 11 11 12 12 12 13 13 13 14
22 22 22 20 20 19 19 18 18 18 17 17 16 16 15 15 15 15 15 14 14 14 14 14 13 13 13 13 12 12 12 11 11 11 11 11 11 12 12 13 13 13 13
21 21 20 20 20 20 20 19 19 19 18 17 16 16 15 15 15 15 15 14 14 14 14 14 14 13 13 12 12 12 11 11 11 10 10 11 11 11 12 12 13 12 13
22 21 20 20 20 19 20 19 19 18 18 16 15 15 15 15 15 15 15 14 14 14 14 14 14 13 12 12 12 11 11 11 11 10 10 11 10 11 10 9 11 12 12
22 20 20 21 20 19 19 19 19 18 18 16 15 15 15 15 15 15 15 14 14 14 14 14 13 13 12 12 11 11 11 11 11 10 10 10 9 8 9 8 8 9 11
21 20 20 20 19 20 20 20 19 19 18 16 16 16 16 16 15 15 14 15 14 14 14 14 13 13 13 12 12 11 11 10 10 10 10 9 9 9 9 8 8 9 9
21 20 20 20 20 20 20 20 19 19 18 16 16 16 16 16 15 15 14 14 14 14 13 13 12 12 12 12 12 12 11 11 11 10 10 10 9 9 9 8 8 8 8
20 19 20 20 20 20 20 20 20 19 18 17 16 16 16 16 15 15 14 14 14 14 13 12 12 12 12 12 12 11 11 11 11 10 10 10 9 9 8 8 9 8 9
20 20 20 21 21 20 20 20 19 18 17 16 16 16 14 15 15 15 14 14 14 14 13 12 12 12 12 12 11 11 11 11 11 10 10 10 10 9 9 8 8 8 9
20 20 20 21 20 20 21 20 19 18 17 16 15 16 15 14 14 14 13 13 13 13 13 12 12 12 11 10 10 10 10 11 11 10 10 10 10 9 9 8 8 9 9
20 20 20 20 20 21 21 19 18 17 16 16 15 15 14 14 14 14 13 13 13 13 12 11 12 12 11 10 10 10 10 11 10 8 8 10 10 9 8 8 8 10 10
19 18 17 17 17 16 20 19 17 17 17 15 15 16 15 15 14 13 13 13 12 12 12 12 11 11 10 10 10 9 10 10 8 8 9 9 8 8 8 8 9 11 11
17 17 16 17 16 15 15 17 18 17 16 15 15 14 14 14 13 13 12 12 11 12 12 12 11 10 10 9 9 9 9 7 8 9 9 9 9 8 8 8 8 11 12
17 17 20 18 15 15 16 17 17 15 15 15 15 15 14 13 12 12 11 11 11 11 11 11 10 9 9 8 8 8 7 7 7 8 8 8 9 9 8 8 8 9 12
19 19 18 17 18 16 16 16 16 15 15 15 15 14 13 12 11 11 11 10 10 11 11 10 10 9 9 8 8 8 8 8 7 8 8 9 9 9 8 8 8 8 8
17 16 16 16 15 15 16 16 15 16 15 15 14 12 11 11 10 10 10 10 10 10 9 9 8 8 8 7 8 8 7 7 7 8 8 8 8 8 8 8 8 8 8
18 19 18 17 16 16 16 16 16 15 14 14 12 11 10 10 9 9 10 10 10 9 8 8 8 7 7 7 7 7 6 6 7 7 7 7 8 8 9 8 8 8 8
16 15 15 15 15 16 15 15 14 14 13 12 10 9 9 9 9 8 8 8 7 8 7 7 7 7 7 7 6 6 6 6 6 6 7 7 7 8 9 8 8 8 8
15 15 15 15 15 15 14 14 14 13 12 11 10 9 8 9 8 8 8 7 7 7 7 7 7 6 6 6 6 6 5 5 5 6 6 7 6 7 8 8 8 8 8
15 15 15 14 13 13 13 13 12 11 10 10 9 9 8 8 8 6 6 6 6 6 6 6 6 6 6 6 6 6 5 4 5 5 5 6 6 6 7 7 8 8 8
14 13 14 14 14 13 13 12 12 11 10 10 9 8 8 8 7 6 5 5 5 5 5 5 5 5 5 5 5 5 5 4 4 4 5 5 5 6 6 6 7 7 8
13 13 13 13 12 12 12 11 11 10 10 9 8 8 8 7 7 6 4 4 4 4 4 4 4 4 4 4 5 5 4 3 4 4 4 4 5 5 5 6 7 7 7
13 12 12 11 11 11 10 10 9 8 8 8 8 7 7 6 6 6 4 4 3 3 3 3 3 4 4 4 4 4 4 4 4 4 4 4 4 5 5 5 6 6 7
11 11 11 11 10 10 9 8 8 8 8 8 8 7 7 6 6 5 4 3 3 3 3 3 3 3 4 4 4 4 3 3 4 4 4 4 4 4 4 5 5 5 6
10 10 10 10 10 9 9 8 8 8 8 8 8 8 7 6 5 5 4 4 3 3 3 3 2 3 3 3 3 3 3 3 3 3 3 4 4 3 4 4 4 4 5
9 9 9 9 9 9 9 9 8 8 8 8 7 7 6 6 5 5 4 4 3 3 2 2 2 2 2 2 2 3 3 3 3 3 3 3 3 3 3 3 3 4 4

GFSGL_850_temp_003.txt.gz
Temp
23 22 22 21 21 21 20 19 19 18 17 16 16 15 15 14 14 14 14 14 14 14 14 13 14 14 13 13 13 12 12 12 11 12 12 12 13 12 12 13 13 13 14
22 22 21 21 21 20 20 19 19 18 17 17 16 16 15 15 14 14 14 14 14 14 14 14 14 13 13 13 13 12 12 11 11 11 11 11 12 12 12 12 12 12 12
22 22 21 21 20 20 20 19 18 18 18 17 17 17 16 15 15 14 14 14 14 14 14 14 14 13 13 13 12 12 11 11 11 10 11 11 11 11 11 12 11 11 12
23 22 21 21 21 20 20 19 19 19 18 18 17 17 16 15 15 14 14 14 15 15 14 14 14 14 13 13 13 12 11 11 11 10 10 11 11 11 10 11 11 11 11
23 22 22 21 21 21 20 20 19 19 19 18 17 17 16 15 15 15 15 15 15 15 14 14 14 13 13 12 12 12 11 11 11 10 10 10 10 10 10 10 10 8 9
22 22 21 21 20 20 19 20 19 19 19 18 17 17 15 15 15 15 15 15 15 14 14 13 13 13 13 12 12 12 11 11 11 11 10 10 10 10 10 8 8 8 7
22 20 21 21 19 20 20 19 20 20 19 18 17 16 16 16 15 15 15 15 14 14 13 13 13 13 13 12 12 12 11 11 10 10 10 10 9 10 9 9 8 7 7
21 19 21 20 18 20 20 19 20 20 19 18 17 16 16 15 15 15 15 14 14 14 13 13 13 13 13 12 12 12 11 11 10 10 10 10 9 9 9 8 8 8 8
21 18 20 19 20 20 19 20 21 20 19 18 17 17 16 15 15 15 14 14 14 14 13 13 13 12 12 11 11 11 11 10 10 11 10 10 9 9 10 8 7 7 8
21 20 21 19 19 20 20 20 20 20 19 17 17 16 15 16 15 15 14 14 14 13 13 13 12 12 11 11 10 10 10 10 10 11 11 11 9 9 10 8 8 7 7
21 20 21 20 19 19 18 17 16 16 15 17 16 16 15 15 15 14 14 13 13 13 12 12 12 12 11 10 10 9 9 9 10 10 9 9 9 9 10 10 8 7 8
20 19 19 19 18 17 18 18 18 15 13 14 16 15 16 15 15 14 13 13 12 12 12 12 12 12 11 10 9 9 9 9 9 8 8 9 9 9 9 9 8 7 8
19 18 17 16 16 17 17 19 19 18 15 15 15 16 15 15 14 14 13 12 12 12 11 12 12 11 10 9 8 8 8 8 8 8 8 8 8 9 8 9 8 8 9
17 17 16 16 16 17 16 15 17 16 15 15 16 15 15 14 13 12 12 12 11 11 11 11 11 10 10 9 8 8 8 8 8 7 7 8 8 9 8 8 8 8 8
15 15 16 16 15 16 16 16 16 15 15 15 15 15 14 13 12 11 11 11 11 10 10 10 10 10 9 8 8 8 8 7 8 7 7 8 8 8 8 8 8 8 7
16 16 16 15 16 17 15 16 15 15 15 14 14 13 12 12 11 11 10 10 10 10 10 9 9 8 8 8 7 7 7 7 7 7 7 7 7 7 8 8 8 8 8
17 17 17 16 16 16 15 16 15 14 15 14 14 13 12 12 11 10 10 10 9 10 9 8 7 7 7 7 7 7 7 7 7 7 7 7 7 8 8 8 8 8 8
16 16 16 16 16 15 16 15 15 14 14 13 13 12 11 11 10 9 9 9 8 8 7 7 7 7 7 7 6 6 6 6 6 6 6 6 7 7 8 8 8 8 8
16 16 16 16 16 16 15 15 14 13 13 13 12 11 11 10 9 8 8 8 8 7 7 6 6 6 6 6 6 6 6 6 5 5 6 6 6 6 7 7 8 8 9
16 15 15 15 15 15 14 14 13 13 13 12 10 10 10 9 9 8 7 7 6 6 6 6 6 6 5 5 5 5 6 5 4 5 5 5 5 6 6 7 7 7 8
15 15 14 14 14 14 13 13 13 12 12 11 10 9 9 9 8 8 7 6 5 5 5 5 5 4 4 4 5 5 5 4 4 4 4 5 5 5 6 6 7 7 8
14 14 13 13 13 13 12 12 11 11 11 10 9 8 8 8 8 7 7 6 5 5 4 4 4 4 4 4 4 4 4 4 4 4 4 4 4 5 5 6 6 7 7
12 12 12 12 12 11 11 10 10 9 9 9 8 8 8 7 7 7 6 5 4 4 3 3 3 3 4 4 4 4 4 4 4 4 4 4 4 4 5 5 6 6 7
12 12 11 11 10 10 9 9 9 8 8 8 8 8 8 7 7 7 6 5 4 3 3 3 3 3 4 4 4 3 3 3 4 4 4 4 4 4 4 5 5 5 5
10 10 10 10 10 9 9 8 8 8 8 8 8 8 8 7 7 6 6 5 4 3 3 2 2 3 3 3 3 3 3 3 3 3 3 3 3 4 4 4 4 5 5
10 9 9 9 9 9 9 8 9 8 8 8 8 8 7 7 7 6 5 5 4 3 3 2 2 2 2 2 2 2 3 3 3 2 3 3 3 3 3 3 4 4 4

GFSGL_850_temp_006.txt.gz
Temp
24 23 23 22 21 21 21 21 20 19 18 17 17 17 16 15 15 14 14 14 14 14 14 14 14 13 13 13 13 13 13 12 12 12 12 12 13 12 12 13 13 13 13
24 23 23 22 21 20 21 21 20 20 19 18 17 17 16 15 15 14 15 14 14 14 14 14 14 13 13 13 13 13 13 12 12 11 12 11 12 12 12 12 12 12 12
24 23 22 21 20 20 20 20 20 20 19 18 17 17 16 16 15 15 15 15 15 14 14 14 14 14 14 14 13 13 13 12 12 11 11 11 11 12 12 12 12 11 12
24 23 23 22 21 20 20 20 20 19 19 18 18 17 16 16 16 16 16 15 15 15 15 15 14 14 14 13 13 13 12 12 12 11 11 11 11 11 11 11 11 10 10
24 24 24 23 21 20 20 19 19 19 19 18 18 17 16 16 16 16 16 15 15 15 15 14 14 14 14 14 13 13 12 12 12 11 11 11 11 11 11 11 10 10 10
22 23 22 22 21 21 18 19 18 19 18 18 18 16 16 16 16 16 15 15 15 15 15 14 14 14 14 13 13 12 12 12 11 11 11 10 11 11 11 10 9 9 8
21 22 21 20 20 18 15 15 18 19 19 19 18 16 16 16 16 15 15 15 15 14 14 14 13 13 13 13 13 13 12 11 11 10 10 10 10 11 10 9 9 8 8
22 21 20 19 20 17 18 17 17 18 19 18 17 17 17 16 16 15 15 15 14 14 14 14 13 13 13 12 12 12 12 11 10 10 9 10 10 11 10 8 8 8 9
22 21 20 19 18 18 19 19 16 18 18 17 17 17 16 16 16 16 15 14 14 14 14 13 13 12 12 12 12 11 11 11 10 10 10 10 10 10 9 8 9 7 7
22 21 20 19 18 17 19 18 16 16 17 15 16 16 15 14 15 15 15 15 14 14 13 13 12 12 12 12 11 11 10 10 9 10 11 11 10 10 9 9 9 7 6
22 19 18 17 17 17 17 17 15 16 16 18 17 18 17 14 13 14 15 15 14 13 13 12 12 12 12 11 11 10 9 9 9 9 10 9 9 9 9 9 9 8 7
22 18 16 16 16 16 15 15 16 17 18 18 18 17 16 15 13 14 15 15 14 13 13 12 12 11 11 11 10 9 9 8 8 8 9 9 9 9 9 9 9 9 8
19 17 15 15 15 15 14 15 16 16 16 17 16 16 15 14 14 15 15 14 13 12 12 11 11 11 11 10 9 8 8 8 8 8 8 8 8 8 9 8 9 9 8
18 15 15 14 14 14 15 15 15 15 17 16 15 15 15 14 15 15 14 13 12 12 11 10 11 10 10 10 8 7 8 8 8 7 7 8 8 9 9 8 8 8 9
19 17 16 16 15 15 15 16 16 16 15 15 15 15 14 14 14 13 13 12 11 10 10 10 10 9 9 8 7 7 7 7 7 7 7 8 8 8 9 8 8 8 8
20 17 17 16 15 16 15 16 16 15 15 15 15 14 13 13 13 12 11 11 10 10 10 9 9 8 8 7 7 7 7 7 7 7 7 7 7 7 8 8 8 8 8
19 17 16 16 16 16 16 15 15 15 15 14 14 13 13 12 12 11 10 9 9 9 9 9 8 8 7 7 7 7 7 6 7 6 6 6 6 7 7 7 8 8 8
16 16 16 16 15 15 15 15 15 14 14 13 13 13 12 11 10 10 9 9 9 9 9 8 7 7 7 6 6 6 6 6 6 6 6 6 6 6 7 7 7 8 8
15 16 16 16 15 15 15 14 14 13 13 13 12 12 11 10 10 9 9 8 8 8 8 7 7 6 6 6 6 5 6 6 6 5 5 5 5 6 6 6 7 7 8
16 16 15 15 15 15 14 14 14 13 13 12 11 11 10 10 9 9 9 8 8 7 6 6 5 5 5 5 5 5 5 5 4 4 4 5 5 5 6 6 7 7 7
15 15 14 15 14 14 14 13 13 12 12 12 11 10 9 9 9 9 8 8 7 6 5 5 5 4 4 5 5 5 5 4 4 4 4 4 5 5 5 6 6 7 7
14 14 14 13 13 13 13 12 12 11 11 11 11 10 9 9 9 8 8 7 6 5 5 4 4 4 4 4 5 5 4 4 4 4 4 4 5 5 5 5 6 6 7
13 13 13 12 12 12 12 11 11 11 10 10 10 9 9 8 8 8 7 7 6 5 4 4 3 4 4 4 4 4 4 4 4 4 4 4 4 4 4 5 6 6 6
12 12 12 11 11 11 11 11 10 9 10 9 9 9 8 8 7 7 7 6 6 4 3 3 3 3 4 4 4 4 4 4 4 4 4 4 4 4 4 4 5 5 6
11 11 10 10 10 10 9 9 8 9 9 8 8 8 8 7 7 7 6 6 5 4 3 3 3 3 3 3 3 4 4 3 3 3 3 3 3 3 4 4 4 4 5
10 10 9 9 9 9 9 9 8 8 8 8 8 8 8 8 7 7 6 6 5 4 3 3 2 2 2 2 3 3 3 3 3 3 3 3 3 3 3 3 4 4 4

GFSGL_850_temp_009.txt.gz
Temp
24 24 23 23 22 22 21 22 23 21 21 20 19 18 17 16 16 15 15 14 14 14 14 14 14 14 13 13 13 13 12 12 12 13 13 11 13 13 13 12 13 13 13
25 25 24 23 23 23 24 20 21 22 20 20 19 18 18 17 16 16 15 14 14 15 15 15 15 14 14 14 14 14 13 12 12 11 12 12 11 12 12 13 13 13 13
24 24 24 24 23 23 23 22 21 22 20 19 19 19 18 17 16 16 16 15 15 15 15 15 15 14 14 14 14 13 12 12 12 11 11 12 11 11 10 11 10 11 12
24 24 24 24 24 23 22 20 20 21 20 19 19 18 18 17 17 16 15 15 15 15 15 15 15 14 14 14 14 13 13 12 12 11 11 11 12 11 10 10 11 11 11
23 23 24 24 23 22 21 19 18 17 15 17 18 17 17 17 17 16 15 15 15 15 15 15 15 14 14 14 14 14 13 12 11 11 11 12 12 12 11 11 11 11 10
23 23 22 22 21 20 20 19 17 16 17 15 15 16 16 16 17 16 15 15 15 15 15 15 14 14 14 14 13 13 13 13 12 11 11 11 10 10 10 10 10 10 10
23 22 22 21 20 20 19 17 16 16 17 18 16 16 17 16 16 16 16 15 15 16 15 15 14 14 14 13 13 13 13 12 11 11 10 10 9 9 9 9 10 8 8
23 22 21 20 19 19 18 17 16 16 17 16 16 17 16 16 16 16 15 15 15 15 15 14 14 14 13 13 13 12 12 11 11 10 9 10 9 10 10 9 9 9 9
24 23 22 21 20 19 18 16 15 17 17 16 16 16 15 16 15 16 15 15 14 14 14 14 14 13 13 12 12 12 12 11 10 10 10 10 10 10 10 9 10 8 8
24 23 21 20 19 17 16 16 14 16 15 16 15 15 16 17 17 16 17 17 16 14 14 14 13 13 12 12 12 12 11 11 10 10 10 10 10 10 10 9 8 8 8
24 23 22 20 18 18 16 15 15 14 14 13 14 16 16 15 16 16 16 15 15 14 13 13 13 12 12 12 11 11 11 10 9 9 9 8 8 8 8 8 9 8 8
23 21 20 18 18 17 16 15 15 14 14 14 14 15 15 15 16 16 15 14 14 13 12 13 13 12 11 11 11 11 10 9 8 8 7 7 7 8 9 9 10 10 9
22 20 20 17 16 16 16 15 14 13 15 15 15 16 15 16 15 15 15 15 15 13 12 13 12 11 11 11 10 10 8 8 8 7 7 7 7 8 9 9 10 9 10
20 18 17 16 16 15 16 14 14 14 14 14 15 15 16 16 15 15 15 14 13 12 12 12 11 11 10 10 9 8 7 7 7 7 7 7 8 8 8 8 8 9 9
19 18 16 17 16 16 16 14 14 15 15 15 15 14 15 15 15 14 13 13 12 13 12 11 10 10 8 8 8 7 7 7 7 7 6 6 6 7 7 8 7 8 8
16 15 16 16 15 15 15 15 15 15 15 14 14 15 15 15 14 14 13 13 12 11 11 10 8 7 7 6 7 7 7 7 7 7 6 6 5 6 6 7 6 7 8
16 15 15 15 14 15 14 14 14 14 14 14 14 15 14 14 13 13 12 11 10 10 10 8 7 6 6 7 7 7 7 7 7 6 6 5 5 6 5 5 6 7 8
15 15 15 15 15 15 14 14 14 14 14 15 14 14 13 13 12 11 11 10 9 9 9 7 6 7 7 6 6 6 6 6 6 6 5 4 4 5 5 5 6 7 7
16 15 15 15 15 14 14 15 14 14 14 14 13 13 12 11 11 10 10 9 8 7 8 7 7 7 6 6 6 6 6 6 6 5 4 4 4 4 5 5 5 6 6
15 15 15 15 15 15 15 15 15 14 13 13 12 12 11 11 10 9 10 9 9 8 8 6 6 6 5 5 5 5 5 5 4 4 4 4 5 4 4 5 5 5 5
14 15 14 14 14 14 14 14 14 13 13 12 11 11 11 10 9 9 9 8 8 7 6 5 5 5 5 5 5 5 5 4 4 4 4 3 4 4 4 5 5 5 5
14 14 14 14 13 13 13 13 12 12 12 11 11 11 10 9 9 9 8 8 7 7 6 5 5 5 5 5 5 5 4 4 4 4 4 4 3 4 4 5 5 5 5
13 13 13 13 13 13 13 12 12 11 11 10 9 9 9 9 8 8 8 7 7 6 6 5 4 4 4 5 5 4 4 4 4 4 4 4 3 4 4 4 5 5 5
12 12 12 12 12 12 11 11 10 10 9 9 8 8 8 8 8 8 7 7 7 6 5 4 4 3 4 4 4 4 4 4 4 4 4 4 3 3 3 4 4 4 5
12 11 11 11 11 10 10 10 9 9 9 8 8 9 8 8 8 7 7 7 6 6 5 4 4 3 4 4 4 4 4 4 4 4 4 4 3 3 3 3 3 4 4
11 10 10 9 9 9 9 9 9 9 9 8 8 8 8 8 8 7 7 7 6 6 5 4 4 3 3 3 3 3 3 4 4 3 4 2 2 2 3 3 3 4 4

GFSGL_850_temp_012.txt.gz
Temp
22 23 22 22 22 22 22 23 22 22 22 21 20 17 19 17 15 14 15 15 14 14 14 14 14 14 14 15 15 15 15 15 15 15 15 15 14 13 13 12 12 12 12
24 24 23 22 22 22 23 23 22 22 23 20 19 18 17 16 14 14 14 15 14 14 14 14 14 15 14 14 14 14 15 14 14 14 13 13 14 13 13 12 12 13 12
23 22 22 22 21 22 24 22 21 21 21 22 20 19 18 18 15 14 14 14 14 14 14 14 14 14 14 14 14 14 15 15 14 14 13 14 14 14 14 13 13 13 12
24 23 21 22 21 20 21 21 22 21 21 20 18 18 17 17 16 16 14 14 14 14 14 14 14 14 14 14 14 13 13 13 13 13 14 14 14 14 14 14 14 14 14
24 23 22 20 19 18 18 21 22 20 20 20 19 19 16 16 16 16 16 14 14 14 14 14 14 14 15 15 14 14 13 13 14 14 14 14 14 13 13 13 13 13 13
23 23 22 20 19 18 18 19 20 20 19 19 20 20 17 16 16 17 16 14 14 14 14 15 14 14 15 15 14 14 13 13 12 12 12 13 12 12 12 12 12 11 12
22 21 21 20 18 18 18 18 17 18 18 18 18 18 17 15 17 16 16 15 14 14 14 14 14 14 14 14 13 14 13 13 13 12 11 11 11 11 10 10 10 10 10
23 21 20 19 18 18 19 19 17 17 17 16 16 16 17 16 16 16 15 15 16 14 15 16 16 15 14 13 13 12 13 11 11 11 10 10 10 10 10 8 9 8 9
24 23 22 22 19 18 19 19 18 16 16 15 16 16 15 15 15 16 16 16 15 15 15 15 14 15 14 14 13 12 12 11 11 10 10 10 11 11 10 8 8 8 8
24 24 23 21 18 18 19 17 16 16 15 15 15 14 13 15 15 15 16 15 14 15 15 14 14 14 14 13 13 12 11 11 11 10 9 9 9 9 9 9 9 8 9
25 25 24 20 18 18 17 16 16 15 14 14 14 14 15 15 14 14 14 15 15 14 13 14 13 13 13 13 12 12 10 11 11 10 10 10 10 10 11 10 9 8 9
25 23 22 22 19 17 17 16 16 15 14 14 14 13 14 15 14 15 15 16 15 14 13 13 13 14 13 12 12 11 11 11 9 10 10 10 10 10 10 9 8 8 8
24 22 22 20 19 17 16 16 15 14 14 14 13 13 14 15 15 15 16 15 14 15 13 14 13 12 12 11 11 11 10 9 9 10 10 10 9 9 8 9 9 8 8
22 21 19 18 17 16 15 15 14 14 14 14 14 14 14 14 13 15 15 15 14 14 14 13 13 12 11 10 10 9 9 8 9 8 9 9 8 9 9 9 9 9 9
18 16 16 15 15 15 15 14 14 14 14 14 13 14 14 14 14 14 13 13 13 13 12 11 11 11 11 11 10 9 8 8 8 8 8 8 8 8 8 8 8 8 8
15 16 16 16 15 14 14 14 13 13 14 14 14 14 14 14 14 14 14 14 13 13 12 12 12 12 11 11 10 10 9 8 8 7 7 8 8 8 8 8 8 8 7
16 16 16 16 16 15 14 14 13 14 14 14 14 14 14 14 14 14 13 13 13 12 11 12 11 11 10 10 9 9 9 8 7 7 7 7 7 7 7 8 8 8 8
15 15 15 16 16 15 15 15 15 14 13 14 14 14 14 13 13 13 12 12 11 11 11 11 11 10 9 9 8 8 8 7 7 7 7 7 7 7 7 8 8 8 8
15 15 16 15 15 15 15 14 15 15 15 12 14 13 13 12 12 12 12 11 11 11 11 10 9 9 8 7 7 6 6 6 6 6 7 7 7 7 7 8 8 8 8
15 15 15 15 14 15 14 14 14 14 14 13 12 11 13 12 11 10 10 9 10 10 9 9 8 7 7 6 6 6 6 6 6 6 6 6 7 7 7 7 8 8 8
16 14 15 15 15 15 15 15 15 15 14 14 14 12 11 11 11 11 10 9 9 9 8 7 7 6 6 5 5 5 6 6 6 6 6 6 6 7 7 7 8 8 9
15 15 15 16 15 14 14 14 14 14 14 14 13 11 11 11 11 11 10 9 9 8 7 6 6 6 6 5 5 5 5 6 5 5 5 6 6 7 7 7 8 8 8
15 15 15 14 14 14 13 14 14 14 14 13 13 11 10 10 11 10 9 9 8 7 7 6 6 6 5 4 4 4 5 5 4 4 4 5 6 6 6 7 7 7 8
14 14 14 14 13 14 14 14 14 13 13 12 12 11 11 10 10 9 9 8 7 7 6 6 5 5 4 4 4 4 4 3 4 4 4 4 5 5 6 6 7 7 7
14 14 13 13 13 13 13 13 13 13 12 12 12 11 11 10 9 8 9 8 7 7 6 5 5 4 4 4 4 3 4 5 5 5 4 4 4 5 5 6 6 7 7
13 12 12 12 12 12 12 12 13 12 12 12 12 11 10 10 10 10 9 8 8 7 6 6 5 4 3 4 3 4 5 5 5 5 5 3 4 5 4 5 5 6 6

GFSGL_850_temp_015.txt.gz
Temp
21 21 21 21 20 21 22 21 20 20 19 19 18 17 16 16 15 15 15 16 15 15 15 15 15 15 15 16 17 17 17 17 17 17 16 16 15 14 14 14 14 14 14
22 22 22 21 21 20 22 20 20 22 19 20 19 18 17 16 15 16 15 15 15 15 15 15 15 15 15 15 15 15 15 16 15 15 15 15 15 15 15 14 14 14 14
23 22 22 22 22 22 21 21 20 21 21 20 20 19 19 18 19 18 19 16 15 15 15 15 15 15 15 15 15 15 16 16 15 15 15 15 15 15 15 14 14 13 14
25 24 23 22 22 21 21 20 20 21 22 21 21 21 20 19 19 19 20 17 15 15 15 15 15 15 15 15 14 14 14 14 15 15 15 15 14 15 14 14 14 14 14
26 25 24 23 21 21 21 20 20 19 20 20 21 21 20 20 20 20 20 17 15 15 15 15 15 15 15 15 15 15 15 14 15 15 15 15 15 15 13 13 13 13 14
26 25 25 23 22 21 21 20 19 19 18 18 19 21 21 20 18 19 19 16 16 15 15 15 15 15 15 15 15 15 15 14 14 13 13 13 13 12 13 12 12 12 12
26 25 25 24 23 22 20 20 19 19 17 17 17 19 19 19 17 17 18 16 15 15 15 15 15 16 15 15 14 14 14 14 13 13 12 12 11 12 11 11 11 11 10
25 24 24 23 22 21 20 20 19 18 17 16 15 17 17 16 16 17 16 16 15 15 15 14 14 15 15 14 13 13 12 13 12 12 12 11 11 11 10 10 10 10 10
23 23 23 22 21 20 19 18 18 18 17 16 15 15 15 14 15 16 16 15 15 15 15 14 14 14 14 14 13 13 13 13 12 12 12 11 11 11 10 10 9 10 10
23 22 21 21 21 20 19 18 18 17 17 16 16 14 14 14 15 16 15 15 15 14 14 15 14 14 14 14 13 13 12 12 12 12 12 11 11 11 11 11 11 10 11
23 22 21 20 20 19 18 18 17 16 16 16 15 14 14 14 14 15 14 14 15 14 14 15 14 15 14 13 14 13 12 12 12 11 11 11 12 12 12 12 11 10 10
22 21 20 20 19 18 18 18 17 16 16 16 15 14 14 15 14 14 15 15 15 14 14 15 14 14 14 13 13 13 12 12 11 10 11 11 12 12 12 11 10 10 9
21 21 20 19 18 18 18 17 16 16 16 15 14 14 15 15 14 14 15 15 15 14 14 14 14 14 14 13 12 12 11 11 10 11 12 12 11 11 10 10 10 10 10
20 20 19 18 17 17 17 16 16 16 15 15 15 15 15 14 14 13 15 15 15 15 15 14 14 13 13 12 12 11 10 10 10 10 10 10 10 10 10 10 10 10 10
19 19 17 17 16 16 16 15 15 15 15 14 14 14 15 14 14 13 14 15 14 14 13 13 13 12 12 12 12 11 10 10 10 10 10 10 10 10 10 10 9 10 10
17 16 16 16 16 15 15 14 14 14 14 14 14 15 14 14 14 14 14 14 14 14 13 13 14 14 14 13 13 12 11 11 10 10 9 9 9 9 9 9 9 10 10
19 18 18 18 16 16 16 15 14 14 14 14 15 15 14 15 14 14 14 14 13 13 13 13 14 14 13 13 12 12 11 11 10 9 9 9 9 9 9 9 9 9 10
18 18 19 19 18 17 17 17 16 15 14 14 14 14 14 14 14 14 13 13 13 13 13 13 13 13 12 12 11 11 10 10 9 9 9 9 9 9 9 9 9 9 9
17 18 19 19 18 18 17 17 17 17 17 14 15 14 14 14 13 13 13 13 13 14 14 13 12 12 11 11 10 9 8 8 8 7 8 9 9 9 9 9 9 9 10
17 18 18 18 17 17 17 17 17 17 16 14 13 11 13 12 12 12 12 11 12 13 13 12 11 10 9 9 8 8 8 8 8 8 9 8 8 8 9 9 9 10 10
17 16 17 18 17 18 17 17 18 18 18 16 16 14 14 14 12 12 12 12 11 12 11 10 10 9 8 8 7 7 8 8 8 8 8 8 8 8 8 9 9 10 10
18 17 17 18 18 17 17 17 17 17 17 17 15 14 13 13 13 13 12 12 11 11 10 9 9 9 9 8 7 7 8 8 8 7 7 7 8 8 8 9 9 9 10
18 18 18 18 17 16 16 17 17 17 17 16 14 14 13 12 13 12 11 11 11 10 9 9 8 8 8 7 6 6 7 8 7 6 6 6 7 8 7 8 9 9 9
17 17 16 16 16 16 16 16 15 15 15 14 13 12 12 12 12 12 11 10 10 10 9 8 8 8 7 6 6 6 6 6 5 5 5 5 6 7 7 8 8 8 9
16 16 15 15 15 16 16 16 16 15 14 14 12 12 12 12 12 12 11 10 9 9 9 8 8 7 6 5 6 6 6 5 6 6 6 4 6 6 7 7 7 8 8
15 15 15 15 15 15 15 15 16 15 14 14 13 12 12 12 11 11 11 10 10 10 9 9 8 7 6 5 5 5 5 6 6 6 6 6 6 6 5 6 7 8 8

GFSGL_850_temp_021.txt.gz
Temp
24 23 23 22 22 21 21 22 21 21 21 21 21 21 21 20 21 21 19 19 18 17 17 17 17 18 17 16 16 16 16 16 16 16 16 16 16 15 15 15 15 15 15
24 24 23 23 22 22 22 22 22 21 20 21 21 21 21 20 20 21 20 19 19 17 17 16 17 17 18 17 16 16 16 16 16 16 16 16 15 15 15 15 15 15 14
24 24 23 23 23 23 23 23 22 22 21 21 21 21 21 21 21 20 20 19 18 18 17 17 17 17 17 17 16 16 16 15 15 15 15 15 15 15 15 15 15 15 14
25 24 24 23 24 24 24 24 23 23 21 21 21 21 21 21 20 20 20 19 18 17 16 16 16 16 16 16 16 15 16 15 15 15 15 15 15 14 14 14 14 14 14
25 24 24 24 24 24 23 24 24 22 22 21 21 20 20 20 20 20 20 20 19 17 17 16 16 16 15 15 15 15 15 15 14 14 14 14 14 14 14 14 13 13 13
26 25 25 23 23 23 23 23 22 22 21 21 20 20 20 20 19 20 20 18 18 17 17 16 15 15 15 14 15 14 15 13 13 14 14 14 14 14 14 13 13 13 12
27 26 25 24 23 23 22 22 21 21 21 20 20 20 20 19 19 18 18 17 17 17 16 16 16 15 15 15 14 14 14 13 14 13 13 14 14 14 13 12 12 12 11
27 26 26 25 25 24 23 22 21 21 21 20 20 20 19 19 19 18 16 16 16 16 16 16 15 15 15 14 14 14 14 14 14 14 13 13 13 13 12 12 12 11 11
27 27 26 26 26 24 24 23 22 21 21 20 20 19 19 18 18 18 16 15 15 15 15 15 15 15 15 15 15 15 14 14 14 13 13 13 13 13 12 12 11 11 11
27 27 27 26 26 25 24 23 23 22 21 20 20 19 19 18 18 17 16 15 14 14 15 14 14 14 15 15 14 14 14 14 14 14 13 13 12 12 12 11 11 11 11
27 26 26 26 26 25 24 23 22 21 21 20 20 19 18 17 17 16 15 15 14 14 14 15 15 15 15 15 14 14 14 14 14 13 13 12 12 12 11 11 11 11 10
26 27 26 26 25 24 23 22 22 22 21 19 18 18 17 16 16 15 15 15 14 13 14 14 14 14 14 14 14 14 14 13 13 13 12 12 11 11 11 11 11 10 10
26 25 25 24 24 23 22 22 23 20 19 18 18 17 16 16 15 15 15 14 14 14 13 14 14 14 14 15 14 14 14 13 13 13 12 11 11 10 11 10 10 10 10
24 24 23 23 22 21 21 22 20 19 18 18 17 17 16 15 15 15 15 15 15 14 14 14 14 14 14 14 14 14 14 13 12 12 11 11 10 10 10 10 9 9 9
23 22 21 21 21 20 20 19 18 18 17 17 16 16 16 15 15 15 15 15 14 14 14 14 14 14 14 14 14 13 13 13 12 11 10 10 10 10 10 9 9 9 9
22 22 22 20 19 19 18 18 17 17 16 16 16 15 15 15 15 15 15 15 14 14 14 14 14 14 14 13 13 13 13 12 12 11 10 10 10 10 9 9 9 9 9
22 22 20 18 18 18 17 17 16 16 15 15 15 15 15 15 15 15 15 14 14 14 14 13 13 13 13 13 13 12 12 12 11 10 10 9 9 9 9 9 9 9 9
22 22 21 19 18 17 16 16 16 16 15 15 14 14 14 14 14 14 14 14 14 14 14 14 14 13 13 12 12 12 11 11 10 9 9 9 9 9 8 8 8 9 9
19 19 19 19 19 18 17 16 17 17 17 16 15 15 15 14 14 14 14 14 14 14 14 13 13 13 13 12 12 11 11 10 10 10 9 9 8 8 8 8 8 8 9
17 18 19 18 17 17 17 17 17 17 17 17 17 16 16 15 15 15 15 14 13 13 13 12 12 12 12 12 11 10 9 9 9 8 8 8 8 8 8 8 8 8 9
18 18 18 18 17 17 17 17 17 17 17 17 17 17 17 16 16 15 14 14 13 13 12 12 12 12 11 11 10 9 9 8 8 8 8 8 8 7 7 8 8 8 8
18 18 18 18 18 18 18 18 18 18 17 17 17 16 16 15 14 14 14 13 13 12 13 12 12 11 10 9 9 8 8 8 8 8 8 8 7 7 7 7 8 8 8
18 18 18 18 18 18 18 18 18 17 17 16 16 16 15 14 13 13 13 13 13 12 12 12 11 11 10 9 9 8 8 7 7 7 8 7 7 7 7 7 7 7 8
17 17 18 17 16 15 17 17 16 16 16 16 16 15 15 14 13 13 13 13 13 12 12 11 11 10 9 9 8 8 8 7 7 7 7 7 7 7 7 7 7 7 8
15 15 15 15 15 15 15 15 16 15 15 15 15 15 14 13 13 13 13 13 13 12 12 11 11 10 9 9 8 8 7 7 7 6 6 7 7 6 6 6 7 7 7
15 14 15 15 15 14 15 15 15 15 14 14 14 14 13 13 13 13 12 13 12 12 12 11 10 10 9 9 9 8 7 7 6 6 7 7 6 6 6 6 6 6 7

GFSGL_850_temp_024.txt.gz
Temp
25 24 24 23 22 22 22 21 20 20 20 20 21 21 20 20 20 20 21 21 21 20 19 17 17 17 17 17 17 16 16 16 16 16 16 16 15 16 15 15 15 15 15
25 25 24 24 23 22 22 22 21 20 20 21 21 21 21 20 20 20 20 21 21 20 19 18 17 17 17 17 16 16 16 16 16 16 16 16 15 15 15 15 15 15 14
25 25 24 24 23 23 23 23 22 21 21 20 21 21 21 21 20 20 20 20 20 20 19 18 17 17 16 16 16 16 16 15 15 15 15 15 15 15 15 14 14 14 14
25 25 24 24 24 24 24 23 23 22 21 21 21 21 21 21 21 20 20 20 20 19 19 18 17 16 16 16 15 16 15 15 14 14 14 14 14 14 14 14 14 13 14
26 25 25 25 25 24 24 24 23 23 22 21 20 20 20 20 20 20 20 20 19 18 19 18 17 17 16 15 15 15 15 14 14 14 14 13 14 13 13 13 13 13 13
26 27 26 25 25 24 24 24 24 23 23 22 21 21 21 20 21 21 20 20 19 18 18 18 17 16 16 15 15 15 15 14 14 14 13 13 13 13 13 13 12 12 12
27 27 26 26 25 25 24 24 24 24 23 22 21 21 20 20 20 20 19 19 18 17 17 17 17 16 16 15 15 15 15 14 14 13 14 13 13 13 13 13 13 12 12
27 27 27 26 26 25 25 25 24 23 23 22 21 21 21 21 20 20 19 18 17 17 16 16 16 16 16 15 15 14 15 14 14 13 13 13 13 13 12 12 12 12 12
26 27 27 27 26 25 25 26 24 22 22 22 22 21 21 20 20 20 19 18 17 16 16 15 15 16 16 15 14 14 14 14 14 14 13 13 13 13 12 12 12 11 11
28 29 28 27 26 26 26 25 24 23 23 22 22 21 21 20 20 19 18 18 17 16 15 14 14 15 15 14 13 14 14 14 14 13 13 13 13 12 12 11 11 11 11
31 29 26 27 26 27 25 24 24 24 22 22 21 21 20 20 19 19 18 17 16 15 15 14 14 14 14 14 13 14 14 14 14 13 13 13 13 12 11 11 11 10 10
30 26 25 25 26 25 25 24 23 22 22 22 21 20 20 19 18 18 17 16 15 15 15 14 14 14 14 14 14 14 14 13 13 13 13 13 12 12 11 11 11 11 10
28 27 25 24 24 25 24 23 22 22 22 21 21 21 19 18 17 16 16 15 15 15 14 13 13 14 14 14 14 14 14 13 13 13 13 12 12 11 11 10 10 10 9
29 26 25 24 24 23 23 23 23 22 21 21 20 19 18 17 16 15 15 15 15 14 14 13 13 14 14 14 14 14 14 13 13 13 12 12 11 10 10 10 10 9 9
27 25 24 23 22 22 21 20 21 22 22 22 20 18 17 16 16 15 15 15 15 14 14 13 13 14 14 14 14 14 13 13 13 12 11 11 10 10 9 9 9 9 9
24 25 24 23 22 20 20 20 21 21 19 17 17 17 16 16 15 15 14 14 14 14 14 14 14 14 14 13 13 13 13 13 12 12 11 11 10 9 9 9 9 8 8
25 23 22 22 22 18 18 17 18 16 17 16 16 16 16 15 15 15 14 14 14 14 14 14 14 14 13 13 13 13 13 13 12 12 11 10 9 9 9 9 8 8 8
23 23 22 18 20 20 19 20 19 18 16 16 16 16 15 15 15 15 14 14 14 14 14 14 13 13 12 13 13 13 12 12 11 11 10 9 9 9 8 8 8 8 8
19 21 21 21 20 19 18 19 19 16 16 16 15 15 15 15 16 15 14 14 14 14 13 13 13 12 12 12 12 12 11 10 10 9 9 9 8 8 8 8 8 8 8
20 19 18 18 17 16 18 18 16 15 15 16 16 16 15 15 16 15 15 14 14 14 13 13 13 12 12 12 11 11 10 9 9 8 8 8 8 8 8 7 8 8 8
18 19 19 19 18 18 18 17 17 18 18 17 17 16 17 17 16 15 15 14 14 13 13 13 12 12 12 12 11 11 10 10 9 8 8 8 8 8 7 7 7 7 8
18 17 18 18 18 19 18 17 17 17 17 17 17 17 17 16 15 15 15 14 13 12 12 12 12 12 12 11 11 10 9 9 8 8 8 8 8 7 7 7 7 7 8
17 17 17 17 17 17 17 17 17 17 17 17 17 16 16 16 15 15 14 14 13 13 12 12 12 12 11 10 10 9 9 9 8 8 7 7 7 7 7 7 7 7 7
16 17 17 17 17 17 17 17 17 17 17 17 16 16 16 15 15 15 14 13 13 12 12 12 12 11 11 10 9 9 8 8 8 7 7 7 7 7 6 6 7 7 7
16 16 16 16 17 17 16 16 16 16 16 16 16 15 15 15 15 14 14 13 12 12 12 12 12 11 11 10 9 9 8 8 7 7 7 7 7 7 7 6 6 6 7
16 16 15 14 14 14 15 14 14 14 15 15 15 15 15 14 14 13 13 13 12 12 12 12 11 11 10 10 9 9 8 8 8 7 7 7 7 7 6 6 6 6 6

GFSGL_850_temp_027.txt.gz
Temp
25 25 24 24 23 22 22 22 21 21 21 20 20 20 21 21 21 21 21 21 20 20 20 19 19 18 17 16 16 16 16 16 16 16 16 16 15 15 15 15 15 15 15
26 25 25 24 24 23 22 22 22 21 21 20 20 20 20 20 20 20 20 20 20 20 20 19 19 18 17 16 16 16 16 15 15 15 16 15 15 15 15 15 15 15 14
25 25 25 25 24 23 23 22 23 22 21 21 20 20 20 20 20 20 20 20 20 19 20 20 19 18 17 16 16 16 16 15 15 15 15 15 15 14 14 14 14 14 14
26 25 25 25 25 24 23 23 23 23 22 21 21 20 20 20 20 21 20 20 20 19 19 19 19 18 18 16 16 15 15 15 15 15 15 15 14 14 14 14 14 13 13
26 25 26 26 26 25 24 23 23 23 23 22 21 20 20 20 20 20 20 20 20 20 19 18 18 18 18 17 16 15 15 15 14 15 15 15 14 14 13 13 13 13 14
27 27 26 26 26 25 24 24 23 23 23 23 23 22 21 20 20 20 20 20 20 19 19 18 17 17 17 17 16 15 15 15 15 15 14 14 14 13 13 12 12 12 12
28 27 26 27 26 26 25 24 23 23 23 23 23 22 22 22 21 20 20 20 19 19 19 17 17 17 17 17 16 16 15 15 15 14 14 14 13 13 13 12 12 11 12
28 26 25 27 27 26 25 25 24 23 24 23 23 23 22 22 21 21 20 20 19 19 18 17 16 16 16 17 16 16 15 15 14 14 14 14 13 13 12 12 12 12 11
28 28 27 28 28 27 26 25 24 23 23 24 24 23 23 23 23 21 20 19 19 18 17 17 16 16 15 15 16 15 15 14 14 14 13 13 13 12 12 12 12 11 11
30 30 29 29 27 28 27 26 25 24 24 23 23 23 23 23 22 21 20 19 18 18 18 16 16 16 15 15 15 15 14 14 14 13 13 13 13 13 12 12 11 11 10
32 31 27 27 27 27 27 25 25 24 22 21 22 22 22 22 21 21 20 19 19 18 17 17 16 15 14 14 14 14 14 14 13 13 13 13 12 12 12 12 11 10 10
30 28 28 28 27 25 25 24 24 23 21 20 21 21 22 21 20 20 19 18 18 17 16 16 15 14 13 13 13 14 13 13 13 13 13 13 13 12 12 11 11 10 10
28 29 29 28 26 24 24 25 22 21 20 19 19 21 22 21 20 19 19 18 17 17 16 15 15 14 14 13 14 14 13 13 13 13 13 13 12 12 12 11 11 10 10
27 30 29 28 26 22 21 21 21 19 19 19 20 22 21 20 20 20 20 18 16 15 15 14 13 13 13 14 14 14 14 13 13 13 13 12 12 12 11 11 10 9 9
25 24 24 24 22 20 21 20 20 19 19 22 22 22 21 19 16 17 19 17 16 16 15 13 14 13 13 14 14 14 14 14 13 13 13 12 11 11 11 10 9 9 9
20 22 21 20 21 20 19 18 18 18 18 19 19 17 17 16 17 17 17 16 16 15 14 14 13 13 14 13 13 13 13 13 13 12 12 12 11 10 10 9 9 8 8
18 18 18 19 19 18 18 18 17 16 16 17 17 17 17 19 17 17 16 15 15 14 14 13 14 13 14 13 13 13 13 13 13 13 12 12 10 10 9 9 9 8 8
20 19 16 17 18 18 18 17 15 15 15 15 15 19 18 16 17 15 14 14 14 14 14 14 14 14 14 13 13 13 13 13 12 12 11 11 10 10 9 9 8 8 8
16 14 15 17 15 16 18 19 20 20 17 15 15 15 15 15 15 14 14 15 15 14 14 14 14 13 13 13 13 13 12 12 11 11 10 10 9 9 8 8 8 7 7
14 14 14 17 15 18 19 18 17 16 15 15 15 14 15 15 15 14 14 14 14 14 14 14 14 13 13 13 12 12 11 11 10 10 9 8 8 8 8 7 7 7 7
17 18 19 17 18 18 17 15 15 15 15 16 15 15 16 16 15 14 14 14 14 14 14 13 13 13 12 12 11 11 11 10 9 9 8 8 8 8 7 7 7 7 7
17 17 18 18 18 18 17 17 17 16 16 15 15 15 14 15 15 14 14 15 15 14 13 13 13 12 12 11 11 10 10 9 9 9 8 8 8 7 7 7 7 7 7
17 17 17 17 17 17 17 17 17 17 17 17 17 16 16 15 15 15 15 14 14 14 13 13 12 12 11 11 11 10 9 9 8 8 8 8 7 7 7 7 7 7 7
16 17 17 17 17 16 16 16 16 16 16 16 16 16 16 16 15 15 14 14 14 13 13 12 12 12 11 11 10 10 9 8 8 8 8 7 7 7 7 7 6 6 6
16 16 16 16 16 16 17 17 17 17 16 16 16 16 16 16 16 15 14 14 13 13 12 12 12 12 11 11 10 9 9 9 8 8 7 7 7 7 7 7 6 6 6
15 15 15 16 15 15 15 15 15 15 15 15 15 15 15 15 15 15 14 14 13 13 12 12 12 11 11 11 10 9 9 9 8 8 8 7 7 7 6 6 6 6 6

GFSGL_850_temp_030.txt.gz
Temp
26 25 25 24 24 23 23 23 22 21 20 21 20 20 20 20 19 19 20 19 20 20 19 20 20 19 18 17 16 16 16 16 16 16 16 16 15 15 15 15 15 15 15
27 26 25 25 25 24 24 23 22 21 21 21 21 20 20 20 20 20 20 20 20 20 20 20 20 19 18 17 17 16 15 15 15 15 16 16 15 15 15 15 14 14 14
26 26 26 25 25 25 24 24 23 22 21 21 21 21 21 20 20 20 20 20 20 19 19 20 20 19 18 18 17 16 16 15 15 15 15 15 15 15 15 15 14 14 14
26 26 26 26 26 26 25 25 24 23 22 22 21 21 21 21 21 20 20 20 20 19 19 19 19 19 18 17 17 16 16 16 15 15 15 14 15 15 14 14 15 14 14
26 25 27 26 26 26 26 25 25 24 23 22 22 22 21 21 21 21 20 20 20 20 19 19 18 18 17 17 16 16 16 15 15 15 14 14 14 14 14 14 14 14 14
26 27 26 25 26 26 26 25 25 24 23 22 22 22 22 22 22 21 21 20 20 20 20 19 19 17 17 17 17 16 16 15 15 15 14 14 15 14 13 14 13 13 13
28 28 27 25 26 26 26 26 25 25 24 23 22 22 22 22 22 22 21 20 20 20 19 19 19 17 17 17 17 16 16 15 15 15 14 14 14 14 13 13 13 13 13
29 27 26 26 27 26 26 26 26 25 25 24 23 23 22 22 21 21 21 20 20 19 19 19 18 17 17 17 16 16 16 16 15 15 14 14 13 13 13 13 13 12 12
25 25 27 28 27 26 27 27 26 26 25 25 24 23 23 22 23 22 21 20 20 19 19 18 18 17 17 16 15 15 15 15 15 14 14 14 13 13 13 13 13 12 11
28 29 28 28 28 28 29 27 26 25 25 25 24 24 24 23 23 22 22 20 19 19 19 18 18 17 16 16 15 15 15 15 15 14 14 13 13 13 13 13 12 12 11
29 27 27 26 27 29 26 26 25 24 24 24 24 24 23 23 23 22 21 20 20 19 19 19 18 17 17 16 15 14 15 15 14 13 13 13 13 13 13 13 12 11 11
25 25 25 26 27 27 25 24 21 21 21 21 19 20 23 23 22 22 21 21 20 19 19 18 17 17 16 16 15 14 14 14 13 13 13 13 13 13 13 12 12 11 10
24 24 25 24 23 22 23 22 23 22 22 19 20 19 20 20 23 21 20 19 19 19 18 17 17 16 16 14 14 14 13 13 13 13 13 13 13 13 12 12 11 10 10
23 23 23 22 22 21 20 21 21 23 28 26 22 21 20 21 22 20 19 19 19 17 17 16 15 15 15 14 14 14 14 14 14 13 13 13 13 12 12 11 11 10 10
23 23 22 21 21 21 20 20 20 20 19 18 18 18 18 19 19 21 19 17 17 16 16 14 14 14 14 13 13 13 14 14 14 13 13 13 12 12 11 11 10 10 9
24 24 24 23 21 20 19 19 18 18 18 18 18 18 17 17 16 15 15 13 15 15 14 14 14 15 13 13 14 14 14 14 13 13 13 12 12 11 11 10 9 9 8
22 21 21 22 21 20 19 18 18 18 18 18 18 17 16 17 17 16 16 16 14 14 14 14 14 13 13 14 14 14 13 13 13 13 12 12 12 11 10 10 9 8 8
20 20 19 18 17 18 18 17 17 17 16 15 15 16 19 18 16 16 16 16 14 14 15 14 14 13 14 14 14 13 13 13 13 13 12 12 11 10 10 9 8 8 8
19 18 16 16 16 16 16 16 15 14 14 13 13 14 17 17 15 15 17 15 15 16 14 14 14 14 14 14 13 13 13 13 12 12 12 11 10 9 9 8 8 8 8
17 18 16 14 14 15 13 13 13 13 14 14 14 13 14 15 15 15 15 14 15 15 15 14 14 14 14 13 13 13 12 12 12 11 11 10 9 8 8 8 8 7 7
18 17 16 14 15 14 13 13 12 15 14 15 16 14 16 16 15 15 15 15 15 15 15 15 14 13 13 13 13 12 11 11 11 11 10 9 9 9 8 7 7 7 7
18 17 15 15 14 15 16 15 15 14 18 16 14 14 16 15 15 16 15 15 15 15 14 14 13 13 13 12 12 11 11 11 10 9 9 9 8 8 7 7 7 7 7
17 17 17 16 15 14 14 16 17 16 14 16 16 16 16 16 15 15 15 15 15 14 14 13 13 12 12 11 11 11 10 10 9 8 8 8 8 7 7 7 7 7 7
16 17 16 16 16 15 15 15 15 15 16 16 16 16 15 15 15 15 14 14 14 14 13 13 12 12 11 11 11 10 10 9 8 8 8 8 7 7 7 7 7 7 7
15 15 15 15 15 15 15 15 15 15 14 15 16 16 16 15 15 14 14 14 14 14 13 13 12 12 11 11 10 10 9 9 8 8 7 7 7 6 6 6 7 7 7
14 14 14 14 13 13 14 14 14 13 13 13 13 13 12 12 12 12 13 13 14 13 13 13 12 12 11 10 10 9 9 9 8 8 8 7 6 6 6 6 6 6 6

GFSGL_850_temp_033.txt.gz
Temp
26 26 25 25 24 24 23 23 23 22 21 21 20 20 20 20 20 20 19 19 20 20 20 20 20 20 19 18 18 17 17 17 16 16 16 16 16 16 16 16 15 15 15
27 27 26 26 25 25 24 24 24 23 22 21 21 20 21 20 20 20 20 20 20 20 20 20 20 20 19 19 18 18 17 17 16 15 15 16 16 15 15 15 15 15 14
26 26 26 26 26 26 25 25 24 24 23 22 21 21 21 21 21 20 20 20 21 21 20 20 21 20 19 19 19 18 18 17 16 15 15 15 15 15 15 15 15 15 14
25 26 26 26 26 26 26 26 25 24 24 23 22 21 21 21 21 21 21 21 21 21 20 20 20 20 19 19 18 18 17 17 16 15 14 14 15 14 15 15 14 14 13
25 26 28 27 26 26 26 26 25 25 25 24 23 22 22 21 21 21 21 21 21 21 20 20 19 19 19 19 18 17 17 16 15 15 14 14 14 14 14 14 13 13 13
26 28 28 27 26 26 26 26 26 25 25 24 24 23 22 22 22 22 22 21 21 20 21 20 19 19 19 18 18 17 17 16 16 15 15 14 14 14 13 13 13 13 14
27 27 27 27 26 26 25 26 26 26 26 25 24 24 23 23 23 23 22 21 21 21 20 20 20 19 19 18 17 17 16 16 15 16 15 15 14 14 13 13 13 13 12
27 26 25 26 26 25 25 26 26 26 26 26 25 24 24 23 23 23 22 21 21 20 20 20 19 19 19 18 17 17 16 16 15 15 15 15 14 14 14 14 13 13 13
27 27 27 28 27 25 25 27 26 26 25 26 25 25 24 24 24 23 22 22 21 20 20 20 19 19 19 18 17 17 16 15 15 15 15 14 14 14 14 13 13 12 12
29 29 28 26 25 26 26 25 25 25 26 25 26 26 25 25 24 24 23 22 21 21 20 20 20 19 19 18 17 16 16 15 15 15 15 14 14 14 14 13 12 12 12
27 25 25 23 24 23 22 21 20 20 19 24 25 26 26 25 25 24 24 22 21 21 21 21 20 19 18 17 17 17 16 15 15 15 14 14 14 14 13 13 13 12 11
27 27 26 26 24 22 21 21 21 20 18 20 22 22 22 24 25 24 24 23 22 20 21 21 20 19 18 17 16 16 16 14 14 14 14 14 14 14 13 13 13 12 12
26 25 25 24 23 22 22 21 20 24 20 20 19 22 25 26 26 26 25 23 21 20 19 19 19 19 17 16 15 15 15 14 14 13 14 13 14 13 13 13 12 12 12
25 24 23 23 22 21 20 22 20 19 19 19 19 21 23 21 21 20 19 19 18 17 17 17 18 17 16 16 14 14 14 14 14 13 13 13 13 13 13 13 12 12 11
24 24 24 23 22 21 21 20 24 25 20 20 23 22 20 18 18 18 18 18 18 15 15 15 15 15 16 15 14 14 13 13 14 13 13 14 13 12 13 12 11 11 10
24 25 24 24 23 22 20 22 20 20 19 19 20 20 20 21 19 19 18 18 17 16 15 15 14 14 15 14 14 14 13 13 13 13 14 13 13 13 12 12 11 11 9
22 22 22 22 22 22 21 20 20 19 19 18 18 18 18 18 18 18 16 15 16 17 17 17 14 14 14 14 14 13 13 13 13 14 14 13 13 12 12 10 10 10 9
21 21 21 21 20 18 18 18 18 18 18 18 18 18 18 18 15 14 16 16 15 16 17 16 16 14 13 13 13 13 13 13 13 13 13 13 12 12 11 10 9 9 8
19 19 18 18 17 16 16 16 16 16 17 17 17 16 15 14 15 15 14 17 16 14 15 16 16 13 14 13 13 13 13 13 13 13 13 12 12 11 10 9 9 9 8
18 17 15 15 14 15 15 14 14 13 13 12 13 12 12 13 14 13 13 15 16 15 16 15 14 14 14 13 13 13 13 13 13 12 12 12 11 10 9 9 8 8 8
17 17 15 14 14 14 14 14 14 14 14 13 14 13 12 13 12 13 13 14 15 15 14 13 13 13 14 13 13 13 13 13 12 12 12 11 11 9 9 8 8 8 8
17 17 16 15 15 15 15 14 13 13 12 12 12 12 12 12 13 13 13 14 15 14 13 14 14 14 14 13 13 13 12 12 12 11 11 10 10 9 8 8 8 8 8
17 16 16 16 15 15 14 15 14 14 12 12 12 12 12 13 13 14 15 14 14 14 14 14 14 14 13 13 12 12 11 11 11 11 10 9 9 8 8 8 8 8 7
15 16 16 16 16 15 13 13 13 13 13 13 13 12 13 13 14 14 14 14 15 15 14 14 14 13 13 12 11 11 11 11 10 10 9 9 8 8 7 7 7 7 7
15 14 14 14 14 15 15 15 14 14 14 14 14 14 15 14 14 14 14 14 14 14 14 13 13 12 12 11 11 11 11 10 10 9 9 9 8 7 7 7 7 7 7
13 13 13 14 13 13 13 14 14 14 14 14 14 14 14 14 13 13 13 13 14 14 13 13 12 12 11 11 11 10 10 10 9 9 9 8 8 6 6 6 6 6 6

GFSGL_850_temp_036.txt.gz
Temp
26 26 25 25 24 24 23 23 23 23 21 22 21 21 19 19 19 21 20 18 20 21 21 20 21 20 18 18 18 18 18 18 19 20 18 17 17 16 16 16 15 15 16
26 26 26 26 25 25 25 24 24 23 23 23 22 21 21 19 19 21 21 19 20 20 21 21 21 19 20 19 18 17 18 18 18 18 18 17 16 16 15 16 15 16 15
22 25 26 27 26 25 25 25 25 24 24 23 23 22 21 20 20 20 21 21 20 21 20 21 21 20 21 18 19 18 17 16 17 17 18 17 17 16 15 15 14 14 14
24 22 23 27 27 27 26 26 26 25 25 24 23 23 22 22 21 21 21 21 21 21 21 21 21 21 21 21 20 20 17 17 16 17 17 18 16 16 15 16 16 15 15
24 23 22 27 27 27 27 27 26 25 25 25 24 23 23 22 21 22 22 22 21 21 21 21 21 21 20 20 20 19 17 17 17 17 17 17 17 17 16 16 16 16 15
24 24 23 23 24 26 26 25 25 25 26 25 24 24 23 23 22 22 23 23 22 21 21 21 21 20 20 20 19 18 18 18 18 18 18 18 17 16 16 16 16 16 16
25 24 23 23 24 25 23 23 25 25 25 25 25 25 24 24 23 23 24 23 21 21 22 21 19 18 20 20 19 18 17 18 17 16 16 17 17 15 15 15 14 14 14
25 24 25 23 24 23 22 24 25 24 24 24 25 25 25 25 24 24 23 23 22 20 20 21 20 20 19 20 20 19 18 18 17 16 15 15 15 15 14 14 13 13 13
26 26 25 25 21 20 22 22 20 19 19 20 19 22 25 25 25 24 24 23 22 22 21 20 20 21 20 20 19 18 18 17 16 16 16 15 15 14 14 14 14 13 15
28 26 24 24 23 23 23 21 21 19 19 19 19 21 23 24 25 25 25 23 22 22 20 20 21 21 21 20 20 19 17 17 16 15 16 15 15 14 14 14 14 14 14
23 22 22 25 25 24 23 23 23 23 21 20 20 20 21 25 23 25 25 24 23 23 21 20 19 20 21 20 20 18 18 17 16 15 15 15 15 14 14 14 14 14 14
23 22 22 24 22 20 21 21 21 19 19 20 24 25 25 27 25 24 26 25 25 24 22 22 20 19 20 21 20 18 17 16 16 15 14 14 14 14 13 13 13 13 13
23 24 22 21 21 21 20 19 19 19 20 19 19 22 20 20 22 23 24 25 25 24 22 20 19 19 19 19 18 17 16 15 15 14 14 15 14 14 14 13 12 13 13
25 24 22 21 21 21 20 20 20 21 20 21 20 21 23 22 20 20 21 22 20 18 18 18 18 17 17 17 16 16 15 16 15 14 14 14 14 14 13 12 12 12 12
23 21 21 21 22 21 22 21 21 21 22 21 22 23 23 23 22 21 20 19 18 18 17 17 17 17 16 16 15 15 14 14 14 14 14 14 14 13 12 13 12 13 12
21 22 23 23 22 21 22 20 21 21 21 21 22 22 22 22 21 20 20 18 18 17 17 16 16 15 15 15 15 16 14 14 13 13 13 13 13 13 13 12 12 13 13
20 21 20 21 23 23 22 22 22 21 19 19 19 19 19 19 19 19 19 18 18 17 17 16 16 15 16 18 15 14 15 14 13 13 13 13 14 13 12 13 12 12 12
22 21 19 21 20 18 19 18 18 18 17 17 18 18 18 18 19 18 18 18 17 16 16 15 16 18 19 18 14 14 14 12 13 13 13 13 13 13 13 13 13 12 12
17 16 18 17 18 18 17 16 16 16 16 16 16 17 17 18 16 17 17 15 15 14 15 16 16 16 16 15 13 13 13 13 13 13 13 13 13 13 13 13 13 12 11
18 19 16 15 15 14 14 14 14 14 14 13 13 14 14 13 13 12 13 14 13 13 13 13 13 13 12 13 13 13 13 13 13 12 12 13 13 13 13 12 12 12 10
17 16 16 16 17 16 15 15 14 14 14 13 14 14 14 15 15 14 13 14 13 13 13 13 14 13 13 14 13 13 13 13 13 12 13 13 13 13 12 12 12 11 12
16 16 17 16 16 15 15 15 15 14 13 13 12 13 13 13 12 13 13 12 13 13 13 13 13 13 13 13 12 13 12 13 13 13 13 13 12 12 12 12 12 12 11
16 16 15 15 14 14 14 14 14 13 13 13 12 12 12 12 12 12 12 13 12 12 13 13 13 13 13 12 12 13 13 13 13 12 12 12 12 11 11 11 11 11 11
16 16 15 13 13 15 14 13 13 13 13 14 12 12 13 13 12 12 12 12 12 12 12 13 13 12 12 12 12 13 13 13 12 12 11 11 11 11 11 11 11 11 11
15 14 14 14 14 14 14 14 13 13 13 13 13 13 12 12 12 12 12 12 12 12 12 12 13 13 13 13 13 13 12 11 11 11 10 11 11 10 10 11 11 10 10
12 12 11 12 13 12 12 12 12 12 12 12 11 11 11 11 12 12 13 13 13 13 13 13 13 12 12 12 12 12 11 11 11 10 9 10 10 10 10 10 10 10 10

GFSGL_850_temp_042.txt.gz
Temp
22 23 23 23 24 23 22 22 22 22 22 23 21 22 22 22 20 20 20 19 20 20 20 21 22 22 21 20 20 20 20 20 20 21 20 20 19 19 18 18 17 17 17
23 23 23 24 24 24 24 23 23 22 22 22 22 21 21 22 22 21 21 20 20 20 21 20 20 21 22 21 20 20 20 20 20 20 20 19 19 19 18 18 17 16 16
22 21 21 22 22 23 24 24 23 23 23 23 22 22 21 21 22 21 21 21 21 20 20 21 21 21 22 22 22 21 20 20 20 19 20 20 19 19 18 18 17 17 17
24 22 22 21 21 22 23 24 24 24 24 24 23 22 22 22 22 22 21 21 21 21 19 20 21 21 22 23 23 22 21 19 20 19 19 19 19 19 18 18 18 17 17
25 24 24 23 22 21 21 22 23 24 24 24 24 23 22 22 22 22 22 22 21 22 21 20 21 23 22 22 23 23 22 20 19 19 19 19 19 19 19 18 18 17 17
27 26 25 24 23 22 22 22 21 22 23 23 24 25 24 24 24 24 23 22 22 22 22 22 21 22 22 22 22 22 23 23 21 20 19 19 19 19 19 19 18 17 17
28 27 26 25 24 24 23 22 22 22 22 22 23 25 25 25 25 25 24 23 22 21 22 23 22 21 21 21 22 21 22 22 21 21 21 19 19 19 19 18 17 17 17
28 28 27 26 25 24 24 23 22 22 22 23 23 24 25 26 26 25 25 24 24 23 22 23 22 22 21 21 22 21 22 21 20 20 20 20 20 19 19 18 18 17 17
28 27 27 27 26 25 24 24 23 22 22 22 23 23 24 25 26 26 25 23 23 23 23 23 23 22 22 20 20 22 22 21 21 20 20 20 20 19 18 18 16 16 16
29 29 27 27 26 25 24 24 23 23 22 21 22 22 23 25 25 25 23 22 22 22 22 23 23 22 21 20 20 20 20 21 21 21 19 19 18 18 17 17 16 16 16
29 29 28 27 27 26 24 23 23 22 21 21 21 21 22 23 25 23 22 20 21 21 20 21 21 21 20 20 19 19 21 20 21 20 20 19 18 18 16 16 15 15 15
29 29 28 27 26 25 24 23 22 21 21 21 21 21 21 22 21 21 20 20 20 20 20 20 20 20 20 20 20 19 19 18 18 19 18 18 18 18 17 17 16 15 14
28 28 28 27 25 24 23 22 21 21 21 21 21 20 21 20 20 20 21 21 20 20 19 19 20 21 20 21 21 20 19 18 17 17 17 18 18 18 17 16 16 15 14
26 26 26 25 24 23 23 22 21 21 21 21 21 21 21 21 21 22 21 22 21 20 20 20 19 19 20 21 21 20 20 19 18 18 18 20 18 16 16 16 15 15 13
24 24 24 24 23 22 22 22 21 21 21 21 22 22 22 22 22 23 22 22 22 22 21 21 20 19 19 19 20 20 19 19 18 18 17 16 17 16 15 16 14 14 13
23 22 23 23 22 22 21 22 22 22 22 22 22 22 22 22 23 22 22 22 22 22 21 21 21 20 19 20 19 20 19 19 18 17 17 16 16 15 14 13 13 13 13
22 23 23 23 24 23 22 22 22 22 22 22 22 22 22 22 22 22 22 22 21 21 20 20 19 19 19 20 19 18 19 18 18 17 16 16 16 15 14 13 13 13 13
22 23 24 24 23 23 23 23 23 21 21 21 21 21 21 21 21 21 22 22 22 21 18 18 18 17 17 18 18 18 17 16 17 16 16 15 16 15 13 13 14 13 13
21 21 21 21 20 21 20 21 20 20 20 20 19 20 20 20 20 20 20 20 19 18 17 17 16 16 16 16 15 15 15 15 15 14 14 13 14 13 13 13 12 13 13
19 20 19 21 20 20 19 19 19 19 18 18 17 18 18 18 18 18 18 18 15 15 14 14 14 15 15 15 14 14 14 14 13 14 14 13 13 13 13 13 13 13 14
18 19 19 18 18 18 17 17 16 16 16 15 16 15 14 14 14 14 14 14 14 13 14 14 15 15 14 14 14 14 14 14 14 13 14 13 13 13 13 13 13 14 14
19 19 20 20 19 18 18 18 17 17 16 15 15 14 14 13 13 13 13 13 13 13 14 14 14 14 14 14 14 14 13 14 13 13 13 13 13 13 13 14 14 15 14
18 18 18 17 17 17 16 15 15 15 14 13 13 13 13 13 13 13 14 14 13 13 13 13 14 15 14 13 14 14 14 14 14 13 13 13 13 14 14 15 15 15 14
16 15 16 16 16 16 14 13 13 13 13 12 13 13 13 13 13 14 13 13 14 14 14 14 15 15 14 14 13 14 14 14 14 13 14 14 14 14 14 14 14 14 14
14 14 15 15 13 13 13 13 13 13 12 12 12 13 13 13 13 13 13 14 14 14 14 14 15 14 14 13 13 13 13 13 14 14 14 14 14 14 14 14 14 14 14
11 11 12 13 13 13 13 12 12 12 12 12 12 12 12 13 13 13 14 14 14 14 14 14 14 13 13 13 13 13 14 14 14 13 14 14 14 14 13 13 13 13 13

GFSGL_850_temp_045.txt.gz
Temp
23 23 22 23 23 22 22 23 22 21 21 22 22 22 22 22 22 21 21 20 20 20 20 21 21 21 20 20 20 20 21 21 21 20 20 20 19 19 19 18 18 17 17
24 23 23 22 23 23 22 23 23 22 22 22 22 22 21 21 21 21 21 21 20 20 20 20 21 21 21 21 20 20 20 20 21 21 20 20 19 19 19 19 18 18 17
24 23 23 23 23 24 24 24 23 23 23 22 22 22 22 21 21 21 21 22 22 21 21 21 21 21 22 22 21 21 20 20 20 20 21 20 19 19 19 18 18 18 17
25 24 24 24 24 24 25 24 24 24 23 23 23 22 22 22 22 22 22 21 22 22 21 22 21 21 22 22 22 22 20 20 20 20 20 20 19 19 19 19 18 18 18
26 25 25 25 25 24 24 24 25 24 24 23 23 23 22 22 22 22 22 22 22 22 22 22 22 23 22 22 22 23 22 20 20 20 20 20 20 20 19 19 18 18 18
26 26 25 25 24 24 24 24 24 24 24 23 23 23 23 23 23 23 23 23 23 22 22 22 22 22 22 23 23 23 23 22 21 20 21 21 21 21 20 19 19 18 18
27 26 26 26 25 25 25 23 24 24 24 23 23 23 23 23 23 23 23 23 23 23 23 23 23 22 22 22 22 22 22 22 22 22 21 22 22 22 20 19 19 18 18
27 26 26 26 25 25 25 25 24 23 23 24 24 24 24 25 25 24 23 22 22 23 24 24 24 24 23 22 22 21 20 20 21 20 21 21 21 21 19 19 19 18 18
28 28 27 27 26 25 25 25 25 24 23 23 23 23 23 25 25 24 23 23 22 22 22 23 23 23 23 23 22 21 22 21 21 20 20 20 20 19 19 19 18 18 17
29 29 28 28 27 27 26 25 25 25 24 24 23 23 23 23 23 22 22 21 21 22 21 21 21 21 21 21 21 21 21 22 22 21 21 19 19 19 18 18 18 18 17
30 29 28 28 28 27 27 26 25 25 24 23 23 23 22 22 21 20 20 20 21 21 21 22 21 20 20 19 19 19 21 21 21 20 20 20 19 19 18 18 18 18 17
28 28 29 29 29 28 27 26 25 24 23 23 22 22 22 21 21 21 20 20 20 20 20 20 20 20 19 19 19 19 19 19 19 19 18 18 19 19 18 18 18 18 18
28 28 28 28 28 27 27 26 24 24 23 22 22 21 21 21 21 21 20 20 20 20 20 20 20 20 20 19 20 20 20 19 19 18 18 18 18 19 18 18 17 16 15
26 26 27 28 27 27 26 25 24 23 22 21 21 21 21 21 21 21 21 21 21 21 20 21 21 21 21 20 19 19 20 19 19 19 18 18 18 17 17 17 16 15 14
25 25 25 26 26 26 25 23 23 22 22 22 22 21 21 21 22 21 21 21 21 21 21 21 21 21 21 20 20 19 19 19 19 19 18 18 17 17 17 17 16 15 14
22 23 23 24 24 24 23 23 22 21 21 21 20 21 21 22 21 21 22 21 21 21 21 21 21 21 20 21 19 19 20 20 20 20 18 17 17 17 17 16 16 15 14
21 22 22 22 22 22 22 22 21 21 21 21 21 21 21 21 21 21 21 21 21 21 21 21 21 20 19 19 19 18 18 18 18 17 17 17 17 17 16 16 15 14 13
20 21 22 22 22 22 22 21 21 21 21 21 21 21 21 21 21 21 21 22 21 21 21 21 20 18 18 18 18 17 17 17 16 16 16 16 16 16 15 14 15 13 13
20 20 21 22 22 22 21 21 22 21 20 20 19 19 20 20 21 21 21 21 21 20 19 16 16 16 16 16 16 17 16 16 15 15 14 14 15 14 15 14 13 12 13
19 19 20 20 21 20 20 20 19 19 18 19 19 19 19 19 19 19 19 19 18 18 16 15 15 16 16 16 16 16 15 14 15 14 14 15 15 14 15 15 12 13 13
19 19 19 19 19 19 19 19 19 17 17 16 16 16 17 17 16 16 17 16 15 14 15 15 16 16 15 15 14 14 13 13 13 13 14 14 14 14 13 13 13 13 13
18 19 19 18 18 17 16 16 16 15 15 15 15 15 14 13 14 15 14 14 14 14 14 14 15 15 15 15 14 14 13 13 13 13 13 13 14 13 14 13 13 13 13
18 18 18 18 17 16 16 16 16 16 15 14 13 12 13 13 13 13 13 14 14 14 14 14 14 15 15 15 14 14 14 13 13 13 13 13 13 13 13 12 13 13 13
17 17 17 16 16 16 15 14 13 13 13 13 12 13 13 13 13 13 13 13 13 14 14 15 15 15 14 14 14 14 14 14 14 14 14 14 14 13 13 13 13 14 14
14 14 14 15 14 15 14 13 13 13 13 13 13 13 13 13 13 13 13 13 13 13 13 14 13 14 14 14 14 14 13 13 13 13 14 14 14 14 14 14 14 14 14
12 12 12 12 12 12 12 12 12 12 12 12 12 12 13 13 12 13 13 13 13 13 14 13 13 13 13 13 13 13 13 14 13 13 13 13 14 14 14 14 14 14 14

GFSGL_850_temp_048.txt.gz
Temp
24 24 23 22 21 21 21 22 22 22 21 21 21 21 21 21 21 21 20 20 20 20 20 20 21 21 21 21 21 21 21 21 21 21 21 20 20 20 19 19 18 18 18
24 23 23 23 22 22 22 22 22 22 22 21 21 21 21 21 21 21 21 21 20 21 21 20 21 21 21 21 21 21 21 21 21 22 21 21 20 20 20 19 19 18 18
24 24 24 23 23 22 22 22 23 23 22 21 21 21 21 21 21 21 21 21 21 21 21 21 22 21 21 21 21 21 20 20 20 20 21 20 20 20 19 19 19 18 18
25 24 24 24 23 23 23 23 23 23 23 22 22 21 22 22 21 21 21 21 21 21 22 22 21 21 21 21 21 21 21 20 20 20 20 20 20 20 19 19 19 18 18
26 25 26 25 25 24 24 24 24 24 24 23 23 22 22 21 21 21 21 21 21 22 22 22 22 22 22 21 21 21 20 20 20 20 19 19 19 19 20 20 19 19 19
27 27 26 26 26 25 25 25 25 25 25 24 24 23 23 22 22 21 21 21 21 21 21 22 22 22 22 22 22 22 21 21 20 20 20 19 20 20 20 19 19 19 18
27 27 27 26 26 26 26 25 25 25 25 25 25 24 24 24 23 23 22 22 21 22 22 22 22 22 23 22 22 22 22 22 22 21 20 20 20 21 21 20 20 19 19
27 28 27 26 26 26 25 25 25 24 25 25 25 25 24 24 24 23 22 22 21 22 22 22 22 23 23 23 23 23 23 23 22 22 20 23 22 21 21 21 20 20 19
27 28 28 27 27 27 26 25 26 25 25 24 25 25 24 24 24 23 22 21 21 21 21 22 22 22 23 23 22 22 22 23 22 22 22 21 21 20 20 19 18 18 18
28 28 28 27 27 27 27 26 26 26 26 25 25 25 25 24 23 23 22 21 22 22 21 21 21 21 21 20 20 20 21 21 20 21 21 21 20 20 20 19 18 18 18
28 28 28 28 28 27 27 26 26 26 25 25 25 25 24 24 23 22 21 20 21 21 21 21 21 20 19 19 19 19 20 20 19 19 19 19 19 19 19 19 18 18 17
27 27 27 28 27 27 27 27 26 26 25 25 24 24 24 23 22 22 21 21 20 20 20 20 20 20 20 20 19 19 19 19 19 19 19 18 18 17 18 18 19 18 16
27 27 27 27 27 27 27 27 26 26 25 24 23 23 23 22 22 22 21 20 20 20 20 21 21 21 20 20 20 20 20 19 19 19 19 19 19 19 18 18 18 17 16
26 26 27 27 27 27 27 27 26 26 25 24 23 22 22 22 22 22 21 21 21 20 20 20 21 21 21 21 20 20 20 20 19 19 19 19 18 18 18 17 17 17 16
23 25 26 26 27 26 26 26 26 25 25 25 24 23 22 22 22 22 21 21 21 21 21 21 21 21 21 21 21 21 21 20 20 20 20 20 19 18 18 17 17 16 15
22 22 22 23 23 24 24 25 24 24 24 23 22 21 21 21 21 21 21 21 21 21 21 21 21 21 21 21 20 21 21 21 21 20 20 19 18 17 17 17 17 16 15
21 21 21 21 22 22 23 23 23 23 22 22 21 21 21 20 21 21 21 20 20 20 20 20 20 19 19 19 18 18 18 18 18 17 17 16 17 16 16 16 16 15 15
20 20 20 21 21 21 21 22 22 22 21 21 20 21 21 21 21 20 20 20 20 20 20 20 20 20 19 18 17 16 16 16 16 15 15 15 15 15 16 15 14 14 15
19 19 20 21 21 22 21 21 21 21 20 20 20 21 21 20 20 20 20 20 20 21 21 20 20 20 18 17 16 16 16 16 16 15 14 14 14 14 14 14 14 13 13
18 18 19 20 21 21 21 21 21 20 20 19 18 19 19 19 19 19 19 20 20 20 19 18 18 17 17 17 16 16 16 15 15 15 14 14 13 13 13 14 13 13 12
18 18 18 19 20 19 19 19 19 19 18 16 17 17 17 17 18 18 18 18 17 16 16 16 16 16 16 16 16 16 15 14 14 13 13 14 14 13 13 13 13 13 12
18 17 17 18 18 18 19 19 18 17 16 16 16 15 14 15 15 15 15 15 15 15 16 16 15 15 15 15 16 15 15 13 13 13 13 13 13 13 13 13 13 12 13
17 17 17 17 17 16 16 15 15 15 14 14 13 13 13 13 14 13 14 14 14 14 15 14 14 14 15 15 15 14 14 14 14 14 14 14 13 13 13 13 13 13 12
17 17 17 17 16 16 16 15 14 14 14 13 13 13 13 13 13 12 12 13 14 13 14 13 13 13 13 13 13 13 14 14 14 15 14 13 13 13 13 13 13 13 13
16 15 15 14 14 14 14 14 14 13 13 13 13 13 13 13 13 13 13 13 13 13 14 14 13 13 13 13 13 13 13 14 13 14 15 14 13 13 13 13 14 13 13
12 12 12 12 12 12 12 12 12 12 13 12 12 12 11 11 12 12 12 12 12 13 13 13 13 13 13 13 13 13 13 13 14 14 14 14 13 13 13 13 13 14 14